owner,sensor,date,latitude,longitude,vertical_datum,sea_water_temperature,qcFlag 
TCOON,ioos:station:TCOON:170:1,2017-12-01T15:30:00Z,27.2970,-97.4049,0.0,20.9,2 
TCOON,ioos:station:TCOON:170:1,2017-12-01T16:30:00Z,27.2970,-97.4049,0.0,21.3,2 
TCOON,ioos:station:TCOON:170:1,2017-12-01T17:30:00Z,27.2970,-97.4049,0.0,21.7,2 
TCOON,ioos:station:TCOON:170:1,2017-12-01T18:30:00Z,27.2970,-97.4049,0.0,22.2,2 
TCOON,ioos:station:TCOON:170:1,2017-12-01T20:30:00Z,27.2970,-97.4049,0.0,22.7,2 
TCOON,ioos:station:TCOON:170:1,2017-12-01T21:30:00Z,27.2970,-97.4049,0.0,23.2,2 
TCOON,ioos:station:TCOON:170:1,2017-12-01T22:30:00Z,27.2970,-97.4049,0.0,23.2,2 
TCOON,ioos:station:TCOON:170:1,2017-12-01T23:30:00Z,27.2970,-97.4049,0.0,23.3,2 
TCOON,ioos:station:TCOON:170:1,2017-12-02T16:30:00Z,27.2970,-97.4049,0.0,22.1,2 
TCOON,ioos:station:TCOON:170:1,2017-12-02T17:30:00Z,27.2970,-97.4049,0.0,22.5,2 
TCOON,ioos:station:TCOON:170:1,2017-12-02T18:30:00Z,27.2970,-97.4049,0.0,23.1,2 
TCOON,ioos:station:TCOON:170:1,2017-12-02T19:30:00Z,27.2970,-97.4049,0.0,23.6,2 
TCOON,ioos:station:TCOON:170:1,2017-12-02T20:30:00Z,27.2970,-97.4049,0.0,24.1,2 
TCOON,ioos:station:TCOON:170:1,2017-12-02T21:30:00Z,27.2970,-97.4049,0.0,24.4,2 
TCOON,ioos:station:TCOON:170:1,2017-12-02T22:30:00Z,27.2970,-97.4049,0.0,24.4,2 
TCOON,ioos:station:TCOON:170:1,2017-12-02T23:30:00Z,27.2970,-97.4049,0.0,24.7,2 
TCOON,ioos:station:TCOON:170:1,2017-12-03T00:30:00Z,27.2970,-97.4049,0.0,25.0,2 
TCOON,ioos:station:TCOON:170:1,2017-12-03T01:30:00Z,27.2970,-97.4049,0.0,24.8,2 
TCOON,ioos:station:TCOON:170:1,2017-12-03T02:30:00Z,27.2970,-97.4049,0.0,24.0,2 
TCOON,ioos:station:TCOON:170:1,2017-12-03T03:30:00Z,27.2970,-97.4049,0.0,24.0,2 
TCOON,ioos:station:TCOON:170:1,2017-12-03T04:30:00Z,27.2970,-97.4049,0.0,23.6,2 
TCOON,ioos:station:TCOON:170:1,2017-12-03T05:30:00Z,27.2970,-97.4049,0.0,23.4,2 
TCOON,ioos:station:TCOON:170:1,2017-12-03T06:30:00Z,27.2970,-97.4049,0.0,23.2,2 
TCOON,ioos:station:TCOON:170:1,2017-12-03T07:30:00Z,27.2970,-97.4049,0.0,23.1,2 
TCOON,ioos:station:TCOON:170:1,2017-12-03T08:30:00Z,27.2970,-97.4049,0.0,23.0,2 
TCOON,ioos:station:TCOON:170:1,2017-12-03T09:30:00Z,27.2970,-97.4049,0.0,23.1,2 
TCOON,ioos:station:TCOON:170:1,2017-12-03T10:30:00Z,27.2970,-97.4049,0.0,22.8,2 
TCOON,ioos:station:TCOON:170:1,2017-12-03T11:30:00Z,27.2970,-97.4049,0.0,22.6,2 
TCOON,ioos:station:TCOON:170:1,2017-12-03T12:30:00Z,27.2970,-97.4049,0.0,22.6,2 
TCOON,ioos:station:TCOON:170:1,2017-12-03T13:30:00Z,27.2970,-97.4049,0.0,22.5,2 
TCOON,ioos:station:TCOON:170:1,2017-12-03T16:30:00Z,27.2970,-97.4049,0.0,22.8,2 
TCOON,ioos:station:TCOON:170:1,2017-12-03T17:30:00Z,27.2970,-97.4049,0.0,23.1,2 
TCOON,ioos:station:TCOON:170:1,2017-12-03T18:30:00Z,27.2970,-97.4049,0.0,23.6,2 
TCOON,ioos:station:TCOON:170:1,2017-12-03T19:30:00Z,27.2970,-97.4049,0.0,24.0,2 
TCOON,ioos:station:TCOON:170:1,2017-12-03T20:30:00Z,27.2970,-97.4049,0.0,24.2,2 
TCOON,ioos:station:TCOON:170:1,2017-12-03T21:30:00Z,27.2970,-97.4049,0.0,24.1,2 
TCOON,ioos:station:TCOON:170:1,2017-12-03T22:30:00Z,27.2970,-97.4049,0.0,24.1,2 
TCOON,ioos:station:TCOON:170:1,2017-12-04T00:30:00Z,27.2970,-97.4049,0.0,23.6,2 
TCOON,ioos:station:TCOON:170:1,2017-12-04T01:30:00Z,27.2970,-97.4049,0.0,23.4,2 
TCOON,ioos:station:TCOON:170:1,2017-12-04T02:30:00Z,27.2970,-97.4049,0.0,23.3,2 
TCOON,ioos:station:TCOON:170:1,2017-12-04T03:30:00Z,27.2970,-97.4049,0.0,23.2,2 
TCOON,ioos:station:TCOON:170:1,2017-12-04T04:30:00Z,27.2970,-97.4049,0.0,23.0,2 
TCOON,ioos:station:TCOON:170:1,2017-12-04T05:30:00Z,27.2970,-97.4049,0.0,22.9,2 
TCOON,ioos:station:TCOON:170:1,2017-12-04T06:30:00Z,27.2970,-97.4049,0.0,22.8,2 
TCOON,ioos:station:TCOON:170:1,2017-12-04T07:30:00Z,27.2970,-97.4049,0.0,22.7,2 
TCOON,ioos:station:TCOON:170:1,2017-12-04T08:30:00Z,27.2970,-97.4049,0.0,22.7,2 
TCOON,ioos:station:TCOON:170:1,2017-12-04T09:30:00Z,27.2970,-97.4049,0.0,22.6,2 
TCOON,ioos:station:TCOON:170:1,2017-12-04T10:30:00Z,27.2970,-97.4049,0.0,22.5,2 
TCOON,ioos:station:TCOON:170:1,2017-12-04T11:30:00Z,27.2970,-97.4049,0.0,22.4,2 
TCOON,ioos:station:TCOON:170:1,2017-12-04T12:30:00Z,27.2970,-97.4049,0.0,22.5,2 
TCOON,ioos:station:TCOON:170:1,2017-12-04T13:30:00Z,27.2970,-97.4049,0.0,22.5,2 
TCOON,ioos:station:TCOON:170:1,2017-12-04T14:30:00Z,27.2970,-97.4049,0.0,22.4,2 
TCOON,ioos:station:TCOON:170:1,2017-12-04T16:30:00Z,27.2970,-97.4049,0.0,23.1,2 
TCOON,ioos:station:TCOON:170:1,2017-12-04T17:30:00Z,27.2970,-97.4049,0.0,23.7,2 
TCOON,ioos:station:TCOON:170:1,2017-12-04T18:30:00Z,27.2970,-97.4049,0.0,24.2,2 
TCOON,ioos:station:TCOON:170:1,2017-12-04T19:30:00Z,27.2970,-97.4049,0.0,25.0,2 
TCOON,ioos:station:TCOON:170:1,2017-12-04T20:30:00Z,27.2970,-97.4049,0.0,25.0,2 
TCOON,ioos:station:TCOON:170:1,2017-12-04T21:30:00Z,27.2970,-97.4049,0.0,25.7,2 
TCOON,ioos:station:TCOON:170:1,2017-12-04T22:30:00Z,27.2970,-97.4049,0.0,25.4,2 
TCOON,ioos:station:TCOON:170:1,2017-12-04T23:30:00Z,27.2970,-97.4049,0.0,25.0,2 
TCOON,ioos:station:TCOON:170:1,2017-12-05T00:30:00Z,27.2970,-97.4049,0.0,24.6,2 
TCOON,ioos:station:TCOON:170:1,2017-12-05T01:30:00Z,27.2970,-97.4049,0.0,24.2,2 
TCOON,ioos:station:TCOON:170:1,2017-12-05T02:30:00Z,27.2970,-97.4049,0.0,24.1,2 
TCOON,ioos:station:TCOON:170:1,2017-12-05T03:30:00Z,27.2970,-97.4049,0.0,23.8,2 
TCOON,ioos:station:TCOON:170:1,2017-12-05T04:30:00Z,27.2970,-97.4049,0.0,23.6,2 
TCOON,ioos:station:TCOON:170:1,2017-12-05T05:30:00Z,27.2970,-97.4049,0.0,23.5,2 
TCOON,ioos:station:TCOON:170:1,2017-12-05T06:30:00Z,27.2970,-97.4049,0.0,23.3,2 
TCOON,ioos:station:TCOON:170:1,2017-12-05T07:30:00Z,27.2970,-97.4049,0.0,23.2,2 
TCOON,ioos:station:TCOON:170:1,2017-12-05T08:30:00Z,27.2970,-97.4049,0.0,23.1,2 
TCOON,ioos:station:TCOON:170:1,2017-12-05T09:30:00Z,27.2970,-97.4049,0.0,23.1,2 
TCOON,ioos:station:TCOON:170:1,2017-12-05T10:30:00Z,27.2970,-97.4049,0.0,23.1,2 
TCOON,ioos:station:TCOON:170:1,2017-12-05T11:30:00Z,27.2970,-97.4049,0.0,23.3,2 
TCOON,ioos:station:TCOON:170:1,2017-12-05T12:30:00Z,27.2970,-97.4049,0.0,23.3,2 
TCOON,ioos:station:TCOON:170:1,2017-12-05T13:30:00Z,27.2970,-97.4049,0.0,23.3,2 
TCOON,ioos:station:TCOON:170:1,2017-12-05T14:30:00Z,27.2970,-97.4049,0.0,23.1,2 
TCOON,ioos:station:TCOON:170:1,2017-12-05T15:30:00Z,27.2970,-97.4049,0.0,22.8,2 
TCOON,ioos:station:TCOON:170:1,2017-12-05T16:30:00Z,27.2970,-97.4049,0.0,23.1,2 
TCOON,ioos:station:TCOON:170:1,2017-12-05T17:30:00Z,27.2970,-97.4049,0.0,23.6,2 
TCOON,ioos:station:TCOON:170:1,2017-12-05T18:30:00Z,27.2970,-97.4049,0.0,24.0,2 
TCOON,ioos:station:TCOON:170:1,2017-12-05T19:30:00Z,27.2970,-97.4049,0.0,24.4,2 
TCOON,ioos:station:TCOON:170:1,2017-12-05T20:30:00Z,27.2970,-97.4049,0.0,25.0,2 
TCOON,ioos:station:TCOON:170:1,2017-12-05T21:30:00Z,27.2970,-97.4049,0.0,25.4,2 
TCOON,ioos:station:TCOON:170:1,2017-12-05T22:30:00Z,27.2970,-97.4049,0.0,25.3,2 
TCOON,ioos:station:TCOON:170:1,2017-12-06T00:30:00Z,27.2970,-97.4049,0.0,24.1,2 
TCOON,ioos:station:TCOON:170:1,2017-12-06T01:30:00Z,27.2970,-97.4049,0.0,23.3,2 
TCOON,ioos:station:TCOON:170:1,2017-12-06T02:30:00Z,27.2970,-97.4049,0.0,22.5,2 
TCOON,ioos:station:TCOON:170:1,2017-12-06T03:30:00Z,27.2970,-97.4049,0.0,21.6,2 
TCOON,ioos:station:TCOON:170:1,2017-12-06T04:30:00Z,27.2970,-97.4049,0.0,21.2,2 
TCOON,ioos:station:TCOON:170:1,2017-12-06T05:30:00Z,27.2970,-97.4049,0.0,21.0,2 
TCOON,ioos:station:TCOON:170:1,2017-12-06T06:30:00Z,27.2970,-97.4049,0.0,20.6,2 
TCOON,ioos:station:TCOON:170:1,2017-12-06T07:30:00Z,27.2970,-97.4049,0.0,20.3,2 
TCOON,ioos:station:TCOON:170:1,2017-12-06T08:30:00Z,27.2970,-97.4049,0.0,20.3,2 
TCOON,ioos:station:TCOON:170:1,2017-12-06T09:30:00Z,27.2970,-97.4049,0.0,20.3,2 
TCOON,ioos:station:TCOON:170:1,2017-12-06T10:30:00Z,27.2970,-97.4049,0.0,20.1,2 
TCOON,ioos:station:TCOON:170:1,2017-12-06T11:30:00Z,27.2970,-97.4049,0.0,19.8,2 
TCOON,ioos:station:TCOON:170:1,2017-12-06T12:30:00Z,27.2970,-97.4049,0.0,19.9,2 
TCOON,ioos:station:TCOON:170:1,2017-12-06T13:30:00Z,27.2970,-97.4049,0.0,19.5,2 
TCOON,ioos:station:TCOON:170:1,2017-12-06T14:30:00Z,27.2970,-97.4049,0.0,19.1,2 
TCOON,ioos:station:TCOON:170:1,2017-12-06T16:42:00Z,27.2970,-97.4049,0.0,18.8,2 
TCOON,ioos:station:TCOON:170:1,2017-12-06T17:30:00Z,27.2970,-97.4049,0.0,18.6,2 
TCOON,ioos:station:TCOON:170:1,2017-12-06T18:30:00Z,27.2970,-97.4049,0.0,18.3,2 
TCOON,ioos:station:TCOON:170:1,2017-12-06T19:30:00Z,27.2970,-97.4049,0.0,18.0,2 
TCOON,ioos:station:TCOON:170:1,2017-12-06T20:30:00Z,27.2970,-97.4049,0.0,17.6,2 
TCOON,ioos:station:TCOON:170:1,2017-12-06T21:30:00Z,27.2970,-97.4049,0.0,17.3,2 
TCOON,ioos:station:TCOON:170:1,2017-12-06T22:30:00Z,27.2970,-97.4049,0.0,17.1,2 
TCOON,ioos:station:TCOON:170:1,2017-12-06T23:30:00Z,27.2970,-97.4049,0.0,16.9,2 
TCOON,ioos:station:TCOON:170:1,2017-12-07T00:30:00Z,27.2970,-97.4049,0.0,16.7,2 
TCOON,ioos:station:TCOON:170:1,2017-12-07T01:30:00Z,27.2970,-97.4049,0.0,16.6,2 
TCOON,ioos:station:TCOON:170:1,2017-12-07T02:30:00Z,27.2970,-97.4049,0.0,16.3,2 
TCOON,ioos:station:TCOON:170:1,2017-12-07T03:30:00Z,27.2970,-97.4049,0.0,16.2,2 
TCOON,ioos:station:TCOON:170:1,2017-12-07T04:30:00Z,27.2970,-97.4049,0.0,16.0,2 
TCOON,ioos:station:TCOON:170:1,2017-12-07T05:30:00Z,27.2970,-97.4049,0.0,15.7,2 
TCOON,ioos:station:TCOON:170:1,2017-12-07T06:30:00Z,27.2970,-97.4049,0.0,15.4,2 
TCOON,ioos:station:TCOON:170:1,2017-12-07T07:30:00Z,27.2970,-97.4049,0.0,15.4,2 
TCOON,ioos:station:TCOON:170:1,2017-12-07T08:30:00Z,27.2970,-97.4049,0.0,15.2,2 
TCOON,ioos:station:TCOON:170:1,2017-12-07T09:30:00Z,27.2970,-97.4049,0.0,15.0,2 
TCOON,ioos:station:TCOON:170:1,2017-12-07T10:30:00Z,27.2970,-97.4049,0.0,14.9,2 
TCOON,ioos:station:TCOON:170:1,2017-12-07T11:30:00Z,27.2970,-97.4049,0.0,14.8,2 
TCOON,ioos:station:TCOON:170:1,2017-12-07T12:30:00Z,27.2970,-97.4049,0.0,14.5,2 
TCOON,ioos:station:TCOON:170:1,2017-12-07T13:30:00Z,27.2970,-97.4049,0.0,14.1,2 
TCOON,ioos:station:TCOON:170:1,2017-12-07T14:30:00Z,27.2970,-97.4049,0.0,13.8,2 
TCOON,ioos:station:TCOON:170:1,2017-12-07T15:30:00Z,27.2970,-97.4049,0.0,13.6,2 
TCOON,ioos:station:TCOON:170:1,2017-12-07T16:30:00Z,27.2970,-97.4049,0.0,13.4,2 
TCOON,ioos:station:TCOON:170:1,2017-12-07T17:30:00Z,27.2970,-97.4049,0.0,13.4,2 
TCOON,ioos:station:TCOON:170:1,2017-12-07T18:30:00Z,27.2970,-97.4049,0.0,13.5,2 
TCOON,ioos:station:TCOON:170:1,2017-12-07T19:30:00Z,27.2970,-97.4049,0.0,13.5,2 
TCOON,ioos:station:TCOON:170:1,2017-12-07T20:30:00Z,27.2970,-97.4049,0.0,13.4,2 
TCOON,ioos:station:TCOON:170:1,2017-12-07T22:30:00Z,27.2970,-97.4049,0.0,12.9,2 
TCOON,ioos:station:TCOON:170:1,2017-12-07T23:30:00Z,27.2970,-97.4049,0.0,12.7,2 
TCOON,ioos:station:TCOON:170:1,2017-12-08T00:30:00Z,27.2970,-97.4049,0.0,12.5,2 
TCOON,ioos:station:TCOON:170:1,2017-12-08T01:30:00Z,27.2970,-97.4049,0.0,12.3,2 
TCOON,ioos:station:TCOON:170:1,2017-12-08T02:30:00Z,27.2970,-97.4049,0.0,12.0,2 
TCOON,ioos:station:TCOON:170:1,2017-12-08T03:30:00Z,27.2970,-97.4049,0.0,11.8,2 
TCOON,ioos:station:TCOON:170:1,2017-12-08T04:30:00Z,27.2970,-97.4049,0.0,11.7,2 
TCOON,ioos:station:TCOON:170:1,2017-12-08T05:30:00Z,27.2970,-97.4049,0.0,11.5,2 
TCOON,ioos:station:TCOON:170:1,2017-12-08T06:30:00Z,27.2970,-97.4049,0.0,11.3,2 
TCOON,ioos:station:TCOON:170:1,2017-12-08T07:30:00Z,27.2970,-97.4049,0.0,11.1,2 
TCOON,ioos:station:TCOON:170:1,2017-12-08T08:30:00Z,27.2970,-97.4049,0.0,10.7,2 
TCOON,ioos:station:TCOON:170:1,2017-12-08T09:30:00Z,27.2970,-97.4049,0.0,10.4,2 
TCOON,ioos:station:TCOON:170:1,2017-12-08T10:30:00Z,27.2970,-97.4049,0.0,10.2,2 
TCOON,ioos:station:TCOON:170:1,2017-12-08T12:30:00Z,27.2970,-97.4049,0.0,9.7,2 
TCOON,ioos:station:TCOON:170:1,2017-12-08T13:30:00Z,27.2970,-97.4049,0.0,9.5,2 
TCOON,ioos:station:TCOON:170:1,2017-12-08T14:30:00Z,27.2970,-97.4049,0.0,9.3,2 
TCOON,ioos:station:TCOON:170:1,2017-12-08T19:30:00Z,27.2970,-97.4049,0.0,9.5,2 
TCOON,ioos:station:TCOON:170:1,2017-12-08T20:30:00Z,27.2970,-97.4049,0.0,9.6,2 
TCOON,ioos:station:TCOON:170:1,2017-12-08T21:30:00Z,27.2970,-97.4049,0.0,9.5,2 
TCOON,ioos:station:TCOON:170:1,2017-12-08T22:30:00Z,27.2970,-97.4049,0.0,9.3,2 
TCOON,ioos:station:TCOON:170:1,2017-12-09T08:30:00Z,27.2970,-97.4049,0.0,9.2,2 
TCOON,ioos:station:TCOON:170:1,2017-12-09T14:30:00Z,27.2970,-97.4049,0.0,8.3,2 
TCOON,ioos:station:TCOON:170:1,2017-12-09T15:30:00Z,27.2970,-97.4049,0.0,8.3,2 
TCOON,ioos:station:TCOON:170:1,2017-12-09T16:30:00Z,27.2970,-97.4049,0.0,8.6,2 
TCOON,ioos:station:TCOON:170:1,2017-12-09T17:30:00Z,27.2970,-97.4049,0.0,9.2,2 
TCOON,ioos:station:TCOON:170:1,2017-12-09T18:30:00Z,27.2970,-97.4049,0.0,9.8,2 
TCOON,ioos:station:TCOON:170:1,2017-12-09T19:30:00Z,27.2970,-97.4049,0.0,10.3,2 
TCOON,ioos:station:TCOON:170:1,2017-12-09T20:30:00Z,27.2970,-97.4049,0.0,10.6,2 
TCOON,ioos:station:TCOON:170:1,2017-12-09T21:30:00Z,27.2970,-97.4049,0.0,10.9,2 
TCOON,ioos:station:TCOON:170:1,2017-12-09T22:30:00Z,27.2970,-97.4049,0.0,10.9,2 
TCOON,ioos:station:TCOON:170:1,2017-12-15T03:30:00Z,27.2970,-97.4049,0.0,14.9,2 
TCOON,ioos:station:TCOON:170:1,2017-12-15T04:30:00Z,27.2970,-97.4049,0.0,14.8,2 
TCOON,ioos:station:TCOON:170:1,2017-12-16T16:30:00Z,27.2970,-97.4049,0.0,11.9,2 
TCOON,ioos:station:TCOON:170:1,2017-12-16T19:30:00Z,27.2970,-97.4049,0.0,12.7,2 
TCOON,ioos:station:TCOON:170:1,2017-12-16T20:30:00Z,27.2970,-97.4049,0.0,12.8,2 
TCOON,ioos:station:TCOON:170:1,2017-12-16T21:30:00Z,27.2970,-97.4049,0.0,12.8,2 
TCOON,ioos:station:TCOON:170:1,2017-12-16T22:30:00Z,27.2970,-97.4049,0.0,12.8,2 
TCOON,ioos:station:TCOON:170:1,2017-12-17T01:30:00Z,27.2970,-97.4049,0.0,12.4,2 
TCOON,ioos:station:TCOON:170:1,2017-12-17T02:30:00Z,27.2970,-97.4049,0.0,12.3,2 
TCOON,ioos:station:TCOON:170:1,2017-12-17T03:30:00Z,27.2970,-97.4049,0.0,12.2,2 
TCOON,ioos:station:TCOON:170:1,2017-12-17T04:30:00Z,27.2970,-97.4049,0.0,12.1,2 
TCOON,ioos:station:TCOON:170:1,2017-12-17T05:30:00Z,27.2970,-97.4049,0.0,12.0,2 
TCOON,ioos:station:TCOON:170:1,2017-12-17T06:30:00Z,27.2970,-97.4049,0.0,11.9,2 
TCOON,ioos:station:TCOON:170:1,2017-12-17T07:30:00Z,27.2970,-97.4049,0.0,11.8,2 
TCOON,ioos:station:TCOON:170:1,2017-12-17T08:30:00Z,27.2970,-97.4049,0.0,11.8,2 
TCOON,ioos:station:TCOON:170:1,2017-12-17T09:30:00Z,27.2970,-97.4049,0.0,12.0,2 
TCOON,ioos:station:TCOON:170:1,2017-12-17T10:30:00Z,27.2970,-97.4049,0.0,11.9,2 
TCOON,ioos:station:TCOON:170:1,2017-12-17T11:30:00Z,27.2970,-97.4049,0.0,11.8,2 
TCOON,ioos:station:TCOON:170:1,2017-12-17T12:30:00Z,27.2970,-97.4049,0.0,11.6,2 
TCOON,ioos:station:TCOON:170:1,2017-12-17T13:30:00Z,27.2970,-97.4049,0.0,11.6,2 
TCOON,ioos:station:TCOON:170:1,2017-12-17T14:30:00Z,27.2970,-97.4049,0.0,11.7,2 
TCOON,ioos:station:TCOON:170:1,2017-12-17T15:30:00Z,27.2970,-97.4049,0.0,11.7,2 
TCOON,ioos:station:TCOON:170:1,2017-12-17T16:30:00Z,27.2970,-97.4049,0.0,11.8,2 
TCOON,ioos:station:TCOON:170:1,2017-12-17T17:30:00Z,27.2970,-97.4049,0.0,11.9,2 
TCOON,ioos:station:TCOON:170:1,2017-12-17T18:30:00Z,27.2970,-97.4049,0.0,12.2,2 
TCOON,ioos:station:TCOON:170:1,2017-12-17T19:30:00Z,27.2970,-97.4049,0.0,12.4,2 
TCOON,ioos:station:TCOON:170:1,2017-12-17T20:30:00Z,27.2970,-97.4049,0.0,12.6,2 
TCOON,ioos:station:TCOON:170:1,2017-12-17T21:30:00Z,27.2970,-97.4049,0.0,12.8,2 
TCOON,ioos:station:TCOON:170:1,2017-12-17T22:30:00Z,27.2970,-97.4049,0.0,13.1,2 
TCOON,ioos:station:TCOON:170:1,2017-12-17T23:30:00Z,27.2970,-97.4049,0.0,13.2,2 
TCOON,ioos:station:TCOON:170:1,2017-12-18T00:30:00Z,27.2970,-97.4049,0.0,13.2,2 
TCOON,ioos:station:TCOON:170:1,2017-12-18T01:30:00Z,27.2970,-97.4049,0.0,13.2,2 
TCOON,ioos:station:TCOON:170:1,2017-12-18T02:30:00Z,27.2970,-97.4049,0.0,13.1,2 
TCOON,ioos:station:TCOON:170:1,2017-12-18T03:30:00Z,27.2970,-97.4049,0.0,13.1,2 
TCOON,ioos:station:TCOON:170:1,2017-12-18T04:30:00Z,27.2970,-97.4049,0.0,13.1,2 
TCOON,ioos:station:TCOON:170:1,2017-12-18T05:30:00Z,27.2970,-97.4049,0.0,13.2,2 
TCOON,ioos:station:TCOON:170:1,2017-12-18T06:30:00Z,27.2970,-97.4049,0.0,13.2,2 
TCOON,ioos:station:TCOON:170:1,2017-12-18T07:30:00Z,27.2970,-97.4049,0.0,13.1,2 
TCOON,ioos:station:TCOON:170:1,2017-12-18T08:30:00Z,27.2970,-97.4049,0.0,13.1,2 
TCOON,ioos:station:TCOON:170:1,2017-12-18T09:30:00Z,27.2970,-97.4049,0.0,13.1,2 
TCOON,ioos:station:TCOON:170:1,2017-12-18T11:30:00Z,27.2970,-97.4049,0.0,13.0,2 
TCOON,ioos:station:TCOON:170:1,2017-12-18T12:30:00Z,27.2970,-97.4049,0.0,13.0,2 
TCOON,ioos:station:TCOON:170:1,2017-12-18T13:30:00Z,27.2970,-97.4049,0.0,12.9,2 
TCOON,ioos:station:TCOON:170:1,2017-12-21T18:30:00Z,27.2970,-97.4049,0.0,19.5,2 
TCOON,ioos:station:TCOON:170:1,2017-12-21T20:30:00Z,27.2970,-97.4049,0.0,20.7,2 
TCOON,ioos:station:TCOON:170:1,2017-12-21T21:30:00Z,27.2970,-97.4049,0.0,21.1,2 
TCOON,ioos:station:TCOON:170:1,2017-12-22T02:30:00Z,27.2970,-97.4049,0.0,19.9,2 
TCOON,ioos:station:TCOON:170:1,2017-12-22T05:30:00Z,27.2970,-97.4049,0.0,19.2,2 
TCOON,ioos:station:TCOON:170:1,2017-12-22T06:30:00Z,27.2970,-97.4049,0.0,19.2,2 
TCOON,ioos:station:TCOON:170:1,2017-12-22T07:30:00Z,27.2970,-97.4049,0.0,19.1,2 
TCOON,ioos:station:TCOON:170:1,2017-12-22T08:30:00Z,27.2970,-97.4049,0.0,19.2,2 
TCOON,ioos:station:TCOON:170:1,2017-12-22T09:30:00Z,27.2970,-97.4049,0.0,19.4,2 
TCOON,ioos:station:TCOON:170:1,2017-12-22T10:30:00Z,27.2970,-97.4049,0.0,19.3,2 
TCOON,ioos:station:TCOON:170:1,2017-12-22T11:30:00Z,27.2970,-97.4049,0.0,19.6,2 
TCOON,ioos:station:TCOON:170:1,2017-12-22T12:30:00Z,27.2970,-97.4049,0.0,19.7,2 
TCOON,ioos:station:TCOON:170:1,2017-12-22T14:30:00Z,27.2970,-97.4049,0.0,19.8,2 
TCOON,ioos:station:TCOON:170:1,2017-12-22T16:30:00Z,27.2970,-97.4049,0.0,20.4,2 
TCOON,ioos:station:TCOON:170:1,2017-12-22T17:30:00Z,27.2970,-97.4049,0.0,20.6,2 
TCOON,ioos:station:TCOON:170:1,2017-12-22T18:30:00Z,27.2970,-97.4049,0.0,21.3,2 
TCOON,ioos:station:TCOON:170:1,2017-12-22T19:30:00Z,27.2970,-97.4049,0.0,21.8,2 
TCOON,ioos:station:TCOON:170:1,2017-12-22T20:30:00Z,27.2970,-97.4049,0.0,22.2,2 
TCOON,ioos:station:TCOON:170:1,2017-12-22T21:30:00Z,27.2970,-97.4049,0.0,22.5,2 
TCOON,ioos:station:TCOON:170:1,2017-12-22T22:30:00Z,27.2970,-97.4049,0.0,22.4,2 
TCOON,ioos:station:TCOON:170:1,2017-12-22T23:30:00Z,27.2970,-97.4049,0.0,22.1,2 
TCOON,ioos:station:TCOON:170:1,2017-12-23T00:30:00Z,27.2970,-97.4049,0.0,21.9,2 
TCOON,ioos:station:TCOON:170:1,2017-12-23T01:30:00Z,27.2970,-97.4049,0.0,21.5,2 
TCOON,ioos:station:TCOON:170:1,2017-12-23T02:30:00Z,27.2970,-97.4049,0.0,21.4,2 
TCOON,ioos:station:TCOON:170:1,2017-12-23T07:30:00Z,27.2970,-97.4049,0.0,19.1,2 
TCOON,ioos:station:TCOON:170:1,2017-12-23T08:30:00Z,27.2970,-97.4049,0.0,18.7,2 
TCOON,ioos:station:TCOON:170:1,2017-12-23T09:30:00Z,27.2970,-97.4049,0.0,18.1,2 
TCOON,ioos:station:TCOON:170:1,2017-12-23T10:30:00Z,27.2970,-97.4049,0.0,17.7,2 
TCOON,ioos:station:TCOON:170:1,2017-12-23T11:30:00Z,27.2970,-97.4049,0.0,17.4,2 
TCOON,ioos:station:TCOON:170:1,2017-12-23T12:30:00Z,27.2970,-97.4049,0.0,17.4,2 
TCOON,ioos:station:TCOON:170:1,2017-12-23T13:30:00Z,27.2970,-97.4049,0.0,17.5,2 
TCOON,ioos:station:TCOON:170:1,2017-12-23T14:30:00Z,27.2970,-97.4049,0.0,17.3,2 
TCOON,ioos:station:TCOON:170:1,2017-12-23T15:30:00Z,27.2970,-97.4049,0.0,17.3,2 
TCOON,ioos:station:TCOON:170:1,2017-12-23T16:30:00Z,27.2970,-97.4049,0.0,17.4,2 
TCOON,ioos:station:TCOON:170:1,2017-12-23T17:30:00Z,27.2970,-97.4049,0.0,17.9,2 
TCOON,ioos:station:TCOON:170:1,2017-12-23T18:30:00Z,27.2970,-97.4049,0.0,18.5,2 
TCOON,ioos:station:TCOON:170:1,2017-12-23T19:30:00Z,27.2970,-97.4049,0.0,18.9,2 
TCOON,ioos:station:TCOON:170:1,2017-12-23T20:30:00Z,27.2970,-97.4049,0.0,19.1,2 
TCOON,ioos:station:TCOON:170:1,2017-12-23T21:30:00Z,27.2970,-97.4049,0.0,19.3,2 
TCOON,ioos:station:TCOON:170:1,2017-12-23T22:30:00Z,27.2970,-97.4049,0.0,19.2,2 
TCOON,ioos:station:TCOON:170:1,2017-12-25T02:30:00Z,27.2970,-97.4049,0.0,18.7,2 
TCOON,ioos:station:TCOON:170:1,2017-12-25T03:30:00Z,27.2970,-97.4049,0.0,17.8,2 
TCOON,ioos:station:TCOON:170:1,2017-12-25T04:30:00Z,27.2970,-97.4049,0.0,17.1,2 
TCOON,ioos:station:TCOON:170:1,2017-12-25T05:30:00Z,27.2970,-97.4049,0.0,16.4,2 
TCOON,ioos:station:TCOON:170:1,2017-12-25T06:30:00Z,27.2970,-97.4049,0.0,15.9,2 
TCOON,ioos:station:TCOON:170:1,2017-12-25T07:30:00Z,27.2970,-97.4049,0.0,15.6,2 
TCOON,ioos:station:TCOON:170:1,2017-12-25T08:30:00Z,27.2970,-97.4049,0.0,15.3,2 
TCOON,ioos:station:TCOON:170:1,2017-12-25T09:30:00Z,27.2970,-97.4049,0.0,15.1,2 
TCOON,ioos:station:TCOON:170:1,2017-12-25T11:30:00Z,27.2970,-97.4049,0.0,15.0,2 
TCOON,ioos:station:TCOON:170:1,2017-12-25T12:30:00Z,27.2970,-97.4049,0.0,15.3,2 
TCOON,ioos:station:TCOON:170:1,2017-12-25T13:30:00Z,27.2970,-97.4049,0.0,15.0,2 
TCOON,ioos:station:TCOON:170:1,2017-12-25T14:30:00Z,27.2970,-97.4049,0.0,15.0,2 
TCOON,ioos:station:TCOON:170:1,2017-12-25T15:30:00Z,27.2970,-97.4049,0.0,15.2,2 
TCOON,ioos:station:TCOON:170:1,2017-12-25T16:30:00Z,27.2970,-97.4049,0.0,15.3,2 
TCOON,ioos:station:TCOON:170:1,2017-12-25T17:30:00Z,27.2970,-97.4049,0.0,15.7,2 
TCOON,ioos:station:TCOON:170:1,2017-12-25T18:30:00Z,27.2970,-97.4049,0.0,15.7,2 
TCOON,ioos:station:TCOON:170:1,2017-12-25T19:30:00Z,27.2970,-97.4049,0.0,15.8,2 
TCOON,ioos:station:TCOON:170:1,2017-12-25T20:30:00Z,27.2970,-97.4049,0.0,15.9,2 
TCOON,ioos:station:TCOON:170:1,2017-12-25T21:30:00Z,27.2970,-97.4049,0.0,15.8,2 
TCOON,ioos:station:TCOON:170:1,2017-12-25T22:30:00Z,27.2970,-97.4049,0.0,15.8,2 
TCOON,ioos:station:TCOON:170:1,2017-12-25T23:30:00Z,27.2970,-97.4049,0.0,15.8,2 
TCOON,ioos:station:TCOON:170:1,2017-12-26T00:30:00Z,27.2970,-97.4049,0.0,15.8,2 
TCOON,ioos:station:TCOON:170:1,2017-12-26T01:30:00Z,27.2970,-97.4049,0.0,15.8,2 
TCOON,ioos:station:TCOON:170:1,2017-12-26T05:30:00Z,27.2970,-97.4049,0.0,15.8,2 
TCOON,ioos:station:TCOON:170:1,2017-12-26T06:30:00Z,27.2970,-97.4049,0.0,15.8,2 
TCOON,ioos:station:TCOON:170:1,2017-12-26T07:30:00Z,27.2970,-97.4049,0.0,16.0,2 
TCOON,ioos:station:TCOON:170:1,2017-12-26T08:30:00Z,27.2970,-97.4049,0.0,16.0,2 
TCOON,ioos:station:TCOON:170:1,2017-12-26T10:30:00Z,27.2970,-97.4049,0.0,15.9,2 
TCOON,ioos:station:TCOON:170:1,2017-12-26T11:30:00Z,27.2970,-97.4049,0.0,15.9,2 
TCOON,ioos:station:TCOON:170:1,2017-12-26T12:30:00Z,27.2970,-97.4049,0.0,15.9,2 
TCOON,ioos:station:TCOON:170:1,2017-12-26T13:30:00Z,27.2970,-97.4049,0.0,15.9,2 
TCOON,ioos:station:TCOON:170:1,2017-12-26T14:30:00Z,27.2970,-97.4049,0.0,16.0,2 
TCOON,ioos:station:TCOON:170:1,2017-12-26T15:30:00Z,27.2970,-97.4049,0.0,16.1,2 
TCOON,ioos:station:TCOON:170:1,2017-12-26T16:30:00Z,27.2970,-97.4049,0.0,16.4,2 
TCOON,ioos:station:TCOON:170:1,2017-12-26T17:30:00Z,27.2970,-97.4049,0.0,16.7,2 
TCOON,ioos:station:TCOON:170:1,2017-12-26T18:30:00Z,27.2970,-97.4049,0.0,17.2,2 
TCOON,ioos:station:TCOON:170:1,2017-12-26T20:30:00Z,27.2970,-97.4049,0.0,18.8,2 
TCOON,ioos:station:TCOON:170:1,2017-12-26T21:30:00Z,27.2970,-97.4049,0.0,18.8,2 
TCOON,ioos:station:TCOON:170:1,2017-12-26T22:30:00Z,27.2970,-97.4049,0.0,19.1,2 
TCOON,ioos:station:TCOON:170:1,2017-12-26T23:30:00Z,27.2970,-97.4049,0.0,18.7,2 
TCOON,ioos:station:TCOON:170:1,2017-12-27T00:30:00Z,27.2970,-97.4049,0.0,18.5,2 
TCOON,ioos:station:TCOON:170:1,2017-12-27T01:30:00Z,27.2970,-97.4049,0.0,18.4,2 
TCOON,ioos:station:TCOON:170:1,2017-12-27T02:30:00Z,27.2970,-97.4049,0.0,18.3,2 
TCOON,ioos:station:TCOON:170:1,2017-12-27T03:30:00Z,27.2970,-97.4049,0.0,18.2,2 
TCOON,ioos:station:TCOON:170:1,2017-12-27T04:30:00Z,27.2970,-97.4049,0.0,17.7,2 
TCOON,ioos:station:TCOON:170:1,2017-12-27T05:30:00Z,27.2970,-97.4049,0.0,17.4,2 
TCOON,ioos:station:TCOON:170:1,2017-12-27T06:30:00Z,27.2970,-97.4049,0.0,17.2,2 
TCOON,ioos:station:TCOON:170:1,2017-12-27T07:30:00Z,27.2970,-97.4049,0.0,16.6,2 
TCOON,ioos:station:TCOON:170:1,2017-12-27T08:30:00Z,27.2970,-97.4049,0.0,16.2,2 
TCOON,ioos:station:TCOON:170:1,2017-12-27T10:30:00Z,27.2970,-97.4049,0.0,15.8,2 
TCOON,ioos:station:TCOON:170:1,2017-12-27T11:30:00Z,27.2970,-97.4049,0.0,15.6,2 
TCOON,ioos:station:TCOON:170:1,2017-12-27T13:30:00Z,27.2970,-97.4049,0.0,15.1,2 
TCOON,ioos:station:TCOON:170:1,2017-12-27T14:30:00Z,27.2970,-97.4049,0.0,14.9,2 
TCOON,ioos:station:TCOON:170:1,2017-12-27T15:30:00Z,27.2970,-97.4049,0.0,14.7,2 
TCOON,ioos:station:TCOON:170:1,2017-12-27T16:30:00Z,27.2970,-97.4049,0.0,14.4,2 